Velovelo
Português Nederlands 日本語 中文
Español English čeština slovenčina
русский italiano polski norsk
français Deutsch svenska عربي
 
 前のページ
 メールでの問い合わせ
 印刷する
 ---> Marmotte 2007 : class du 1001ème au 2000ème

ClassNomPrénom.Cat.C.Cat..Temps..
1001 VERLEYZEN JOHN D 366 8:39:36
1002 SWINNEN JO E 323 8:39:45
1003 GOEDE JOOST E 324 8:39:55
1004 GIMENEZ CHISVERT PASCUAL E 325 8:39:58
1005 HARTENSTEIN BERNHARD E 326 8:39:59
1006 PONS NICOLAS D 367 8:40:05
1007 HOCHART PATRICK F 91 8:40:07
1008 VAN DEN BROEK PAUL C 194 8:40:10
1009 LENDERINK GERHARD D 368 8:40:13
1010 GRAY MARK D 369 8:40:14
1011 BAGLIN SYLVAIN D 370 8:40:18
1012 BOURGET YANNICK E 327 8:40:25
1013 ROOSELAER JAN D 371 8:40:28
1014 MEYLAN PATRICK D 372 8:40:29
1015 ANGUE EDOUARD C 195 8:40:32
1016 PRICHARD IAN D 373 8:40:36
1017 TALSTRA SJOERD D 374 8:40:38
1018 LINKIS KASPAR F 92 8:40:52
1019 DE VLEESCHOUWER DANNY F 93 8:40:56
1020 BLOMME DIRK E 328 8:41:02
1021 CROMBAG JACK D 375 8:41:04
1022 CIBEI EUGENIO F 94 8:41:08
1023 VANHAUWAERT RONNY D 376 8:41:09
1024 ROCA HENRI E 329 8:41:16
1025 SLAGHEKKE JEROEN D 377 8:41:17
1026 CROWLEY JOHN E 330 8:41:19
1027 BORELL HORTA JOAN E 331 8:41:29
1028 DE HERTOG PASCAL E 332 8:41:44
1029 DEN BOER RENE F 95 8:41:44
1030 VERSTEEG AD D 378 8:41:50
1031 ROZENDOM RAMON C 196 8:41:58
1032 BARBIERI PALMIRO F 96 8:42:03
1033 DURUPT ALAIN F 97 8:42:08
1034 NICOLAS JEAN MARIE E 333 8:42:08
1035 VAN DER WEERD MARTIJN D 379 8:42:15
1036 SCHMETS DAVID C 197 8:42:16
1037 COPPENS JAN F 98 8:42:20
1038 PHILIPS DIRK D 380 8:42:21
1039 FREIWALD MICHAEL D 381 8:42:22
1040 JANSEN JAN F 99 8:42:23
1041 ECHALLIER FABRICE D 382 8:42:23
1042 NEDERLOF ERWIN E 334 8:42:30
1043 FREDDO HERVE C 198 8:42:36
1044 GRANDHAY OLIVIER E 335 8:42:38
1045 BACONNIER MARC F 100 8:42:39
1046 VAN DER PLAS DIRK E 336 8:42:39
1047 MAMBRE GILLES E 337 8:42:53
1048 CUDLIPP MARTIN D 383 8:42:53
1049 DE VRIESE PETER E 338 8:42:55
1050 LANGLANDS DAVID E 339 8:42:56
1051 JUSTIN FABRICE D 384 8:43:01
1052 WARD CHRISTOPHER E 340 8:43:06
1053 DOZE JACCO D 385 8:43:07
1054 BRULEZ TOM D 386 8:43:07
1055 DEN HOLLANDER ERWIN C 199 8:43:13
1056 VERMEULEN JOHAN C 200 8:43:18
1057 MULDER FRANS F 101 8:43:21
1058 DOSSCHE FILIP E 341 8:43:23
1059 VANDEVELDE PATRICK D 387 8:43:29
1060 VANDENBERGHE PETER D 388 8:43:32
1061 DEGACHE CHRISTIAN E 342 8:43:32
1062 RAGA CARRERES DAVID D 389 8:43:35
1063 PETER DE GRAUWE E 343 8:43:36
1064 CARON XAVIER D 390 8:43:44
1065 LENZI CHRISTIANO D 391 8:43:48
1066 VAN DER WEIDE AUKE BONNE D 392 8:44:01
1067 BENISTANT DANIEL E 344 8:44:05
1068 BRAVO RUIZ DE ZUAZU MIGUEL ANGEL F 102 8:44:17
1069 MORTEN GADE D 393 8:44:23
1070 COLLINS RON G 13 8:44:27
1071 GAUCHER CHRISTOPHE E 345 8:44:28
1072 SHIRLEY RICHARD D 394 8:44:30
1073 VAN KATWIJK RONNY D 395 8:44:32
1074 THOMAS CYRILLE D 396 8:44:44
1075 ROBERT MICHEL D 397 8:44:46
1076 CRETOUX PIERRE E 346 8:44:49
1077 ABEL SANCHEZ JULIO E 347 8:44:49
1078 RUBIO BELTRAN JOSE AGUSTIN E 348 8:44:50
1079 PAIRE FICOT DANIEL J 3 8:44:52
1080 GALBIS-VALERO FERNANDO E 349 8:44:55
1081 JENSEN CLAUS TOMMY E 350 8:44:59
1082 MALCHIODI FRANCK C 201 8:45:00
1083 STEENACKERS JOHAN E 351 8:45:01
1084 VAN HEIJNINGEN BART D 398 8:45:02
1085 ALBREKTSEN HENRIK E 352 8:45:07
1086 OLSEN KURT E 353 8:45:14
1087 MEDRANDA JOSE E 354 8:45:21
1088 MARCAILLE FREDDY F 103 8:45:27
1089 VER ELST JAN E 355 8:45:28
1090 BOT PETER E 356 8:45:31
1091 ZILBETI LAZKANO XABIER E 357 8:45:42
1092 PALLAVICINO SANTO D 399 8:45:42
1093 HILL JACK G 14 8:45:57
1094 CINQUI JEAN LOUIS D 400 8:45:58
1095 BERNARDINI LORIS E 358 8:46:00
1096 DEHAYE PHILIPPE E 359 8:46:10
1097 CUYPERS GEERT D 401 8:46:12
1098 DE BOITSELIER GINO D 402 8:46:13
1099 SCHULTE LODEWIJK D 403 8:46:15
1100 COURT CHRISTIAN E 360 8:46:16
1101 TUBES ANDREAS E 361 8:46:20
1102 SCHREVEN TON D 404 8:46:21
1103 VAN HOORDE PHILIPPE D 405 8:46:21
1104 PASCALIS XAVIER D 406 8:46:23
1105 COSSYNS MARC E 362 8:46:28
1106 LEMPEREUR FREDDY E 363 8:46:28
1107 BEUKES ADRILAN E 364 8:46:31
1108 LODWICK RHYS F 104 8:46:32
1109 HALAGER NIELSEN DAN E 365 8:46:33
1110 VANZEGHBROECK ALAIN E 366 8:46:33
1111 PIETERS REMI E 367 8:46:38
1112 MADSEN ALEX E 368 8:46:48
1113 VAN DAMME STEVEN C 202 8:46:55
1114 BRETON ERIC F 105 8:47:03
1115 DEFFAYET LAURENT E 369 8:47:17
1116 JODOCY PASCAL C 203 8:47:19
1117 RIJS MARCEL E 370 8:47:21
1118 RIJKHOLL FRANK E 371 8:47:23
1119 POULTER ROB E 372 8:47:28
1120 DOMINIC BAKER E 373 8:47:29
1121 BERG PETER UTZON C 204 8:47:30
1122 WEBER PASCAL F 106 8:47:33
1123 JOOSTEN STEFAN C 205 8:47:36
1124 JUSTE BERNARD F 107 8:47:41
1125 SPRINGALL HARRY C 206 8:47:51
1126 BROCKLEWRST SIMON D 407 8:47:54
1127 SNOEK YVO C 207 8:47:56
1128 BOSCH SIL C 208 8:47:57
1129 DEBOGNIES BEN E 374 8:47:59
1130 RIPOLL BERNARD E 375 8:48:06
1131 KATZ DAVID D 408 8:48:07
1132 WUBBEN BART C 209 8:48:09
1133 DE BRUYN PATRICK E 376 8:48:13
1134 HANSEN STEFFEN MUNCH G 15 8:48:16
1135 ADRIAENS ETIENNE G 16 8:48:23
1136 AERTGEERTS BART D 409 8:48:24
1137 TAYLOR BARRY D 410 8:48:30
1138 VAN DE BRUG WIM E 377 8:48:31
1139 WOTTON ROBERT D 411 8:48:31
1140 HOLTEN RAF E 378 8:48:36
1141 MICHEL JEAN MARC D 412 8:48:38
1142 EVANS MARK E 379 8:48:43
1143 DANIELS HANS D 413 8:48:47
1144 KRIJGER BOB D 414 8:48:49
1145 MACARI MAURICE F 108 8:48:50
1146 LALLEMAND GILLES E 380 8:48:53
1147 HANTSON LUDWIG D 415 8:48:56
1148 MAYO CIA LUIS MARIA E 381 8:49:00
1149 ZWARTS DICK D 416 8:49:04
1150 VAN DEN HOEK ROEL D 417 8:49:04
1151 ZWINKELS JOHN C 210 8:49:07
1152 VAN WIJK CHRIS E 382 8:49:07
1153 GINER GILLES D 418 8:49:07
1154 HERMANS HUGO E 383 8:49:12
1155 VAN LANKVELT HUUB F 109 8:49:21
1156 DURNEZ LIEVE AB 9 8:49:27
1157 MIDDLEMISS KEN E 384 8:49:30
1158 JANSSEN ARNO D 419 8:49:35
1159 MULDER TON E 385 8:49:44
1160 FERNANDEZ MARIN JOSE ALBERTO D 420 8:49:53
1161 CHAUDIER DIDIER E 386 8:49:57
1162 LARSEN HASSE F 110 8:50:01
1163 GROSDENT WILLIAM C 211 8:50:02
1164 SCHOUTEN JOOST C 212 8:50:03
1165 PIETTE STANY E 387 8:50:07
1166 AERTS LOUIS E 388 8:50:08
1167 SIERRA GARCIA JOSE ANTONIO E 389 8:50:10
1168 CHIODO ENRICO E 390 8:50:13
1169 GUIGON REMY E 391 8:50:15
1170 VINCENT BRAM C 213 8:50:16
1171 MARTINEZ PEREZ MICHEL E 392 8:50:18
1172 ANDERSEN CARSTEN F 111 8:50:28
1173 GUNS BENNY E 393 8:50:32
1174 CALLAHAN MICHAEL E 394 8:50:37
1175 HERMANS MARC D 421 8:50:43
1176 LOTH EMMANUEL D 422 8:50:46
1177 PAILHA DENIS E 395 8:50:47
1178 PAUWELS LUC E 396 8:50:49
1179 MAYER PASCAL E 397 8:50:54
1180 SERRANO RUBIO PABLO E 398 8:50:54
1181 MARTIN SIMON C 214 8:50:57
1182 VERSTOCKEN TOM C 215 8:50:59
1183 BIBOLLET BRUNO D 423 8:51:06
1184 TAYLOR STEPHEN E 399 8:51:12
1185 ENGLISH PETER F 112 8:51:14
1186 VELDHORST MEINDERT C 216 8:51:14
1187 HES FEDOR D 424 8:51:15
1188 RUIJTER THEO F 113 8:51:17
1189 REGNARD CHRISTOPHE D 425 8:51:18
1190 CAFFREY GEOFFREY D 426 8:51:21
1191 MARTINEZ BARAHONA JORGE E 400 8:51:22
1192 HUISMAN MARTIN E 401 8:51:24
1193 HEIBLOM EDWIN D 427 8:51:25
1194 VAN MOL FILIP E 402 8:51:31
1195 ABONNEAU ROBERT G 17 8:51:32
1196 EARP DARREN D 428 8:51:35
1197 BOOIJ PIETER D 429 8:51:40
1198 SILLARD LAURENT E 403 8:51:43
1199 SERRAILLE BRUNO E 404 8:51:43
1200 REYNOSO CARLOS E 405 8:51:46
1201 DOWLING JOHN F 114 8:51:52
1202 VAUDAN MARY-JEROME AB 10 8:52:02
1203 VAN EECKELEN EDDY F 115 8:52:09
1204 IZAGIRRE JOSE LUIS E 406 8:52:22
1205 ROSA JOSE F 116 8:52:23
1206 SANGERS WILLEM E 407 8:52:24
1207 DAVID WILLIAM D 430 8:52:25
1208 HINDLE GRAHAM F 117 8:52:30
1209 NIJS JO D 431 8:52:43
1210 MERENCIANO MARTINEZ JAVIER D 432 8:52:45
1211 LOUBET PATRICK E 408 8:52:48
1212 MICHIELS WIM E 409 8:52:51
1213 LEMPRIERE SIMON E 410 8:52:51
1214 VINK HENNY E 411 8:52:54
1215 BOUNIOL ERIC E 412 8:53:01
1216 RUSYNIAK GEORGE E 413 8:53:02
1217 VAN DEN HEIJDEN JOHAN F 118 8:53:03
1218 SOEREN SALOMONSEN D 433 8:53:10
1219 HOEKS ALEX D 434 8:53:11
1220 DE WILDE ANDRE E 414 8:53:14
1221 VAN KERCKHOVEN DANY E 415 8:53:14
1222 NEIRYNCK FRANK E 416 8:53:17
1223 BLOMMERDE PIERRE E 417 8:53:27
1224 VOLKERS ANDRE D 435 8:53:28
1225 REYNAUD STEPHANE E 418 8:53:32
1226 EDWARDS GRAHAM E 419 8:53:53
1227 VANDAELE KURT E 420 8:54:02
1228 SENDEN WIEL F 119 8:54:08
1229 BLOM FONS E 421 8:54:09
1230 VAN DER VELDEN ROB E 422 8:54:09
1231 NOUWENS THEO D 436 8:54:09
1232 HOLMES SIMON F 120 8:54:10
1233 GORDTS HANS E 423 8:54:12
1234 JOHNSON TOBY D 437 8:54:13
1235 MARTIARENA IGOR D 438 8:54:23
1236 MARKVOORT DAVID C 217 8:54:23
1237 MARTIARENA JOSE JULIAN F 121 8:54:24
1238 VAN DOMMELEN HENRICUS D 439 8:54:24
1239 MICHIELS WOUTER D 440 8:54:26
1240 SWINHOE ALAN E 424 8:54:28
1241 VAN WEVERENBERGH JORIS E 425 8:54:31
1242 LENGER STEVE D 441 8:54:34
1243 LADAVIERE PHILIPPE D 442 8:54:35
1244 CAGNE DAVID D 443 8:54:35
1245 ALBERTY MARC E 426 8:54:39
1246 VLAEYEN DIRK E 427 8:54:42
1247 VIANA DANIEL E 428 8:54:43
1248 VAN BEUNINGEN ALBERT E 429 8:54:46
1249 ROSEBOOM DENNIS D 444 8:54:49
1250 EECKHOUT PIETER D 445 8:54:52
1251 SENDEN DIRK C 218 8:54:53
1252 DIJKSTRA PIETER E 430 8:55:01
1253 ROLLINI MARC D 446 8:55:07
1254 BAVIERA VIVO FEDERICO D 447 8:55:10
1255 GEUDENS RUBEN D 448 8:55:10
1256 VAN DER BERG RENE D 449 8:55:23
1257 DAHL MAX E 431 8:55:36
1258 THOMAS PASCAL D 450 8:55:38
1259 VAN HARDEVELD RICHARD C 219 8:55:38
1260 NIEUWSTRAATEN MAARTEN C 220 8:55:42
1261 VELASCO CABALLERO JUAN JOSE E 432 8:55:48
1262 DUCHENE BERNARD F 122 8:56:04
1263 JANSEN COR E 433 8:56:08
1264 DE RUYCK WOUTER C 221 8:56:10
1265 VUILLEMIN MARC D 451 8:56:11
1266 BERNARD PIERRE F 123 8:56:13
1267 BLOEM MARK E 434 8:56:13
1268 STUBY JEAN LUC E 435 8:56:18
1269 GALLIEN JEAN FRANCOIS E 436 8:56:18
1270 GOOSSENS DANNY E 437 8:56:24
1271 DERIEMAKER JEREMY C 222 8:56:24
1272 SMID PIET E 438 8:56:34
1273 FRASCHIA GIULIO D 452 8:56:39
1274 MADRIGAL RAUL E 439 8:56:40
1275 DE CLERCQ ADELIN E 440 8:56:42
1276 MAZZARINI J.CLAUDE F 124 8:56:47
1277 BRASSELET MARC G 18 8:56:49
1278 BLOM HANS D 453 8:56:49
1279 OOMS RUDI E 441 8:56:53
1280 STAPHORST GEERT D 454 8:56:53
1281 MOULIN PAUL F 125 8:56:54
1282 GERES RIK D 455 8:56:55
1283 WOUTERS ROEL C 223 8:56:58
1284 ICKX PATRICK D 456 8:57:00
1285 PITTEVILS PHILIP E 442 8:57:06
1286 VAN REENEN BARRIE C 224 8:57:08
1287 LARSEN BENNY E 443 8:57:12
1288 EIKELBOOM WILLEM D 457 8:57:13
1289 OOMEN WIM F 126 8:57:14
1290 ESSINK SJEF F 127 8:57:17
1291 PEIRLINCK MARC E 444 8:57:18
1292 DIJKSTRA ERICK E 445 8:57:24
1293 GONZALEZ GRACIA XAVIER E 446 8:57:30
1294 RAWLINS FRANCK E 447 8:57:38
1295 MILLEN XANDER E 448 8:57:41
1296 PAILLER FRANCK E 449 8:57:42
1297 SOUTHALL ANDREW E 450 8:57:44
1298 LEVICAR DARKO D 458 8:57:48
1299 PLANES SEBASTIEN E 451 8:57:58
1300 FABER KLAAS F 128 8:58:05
1301 MOLLET BERNARD E 452 8:58:08
1302 PEDERSEN JENS FONSS E 453 8:58:12
1303 GARCIA ORDONNEZ ALBERTO F 129 8:58:12
1304 HANSEN FLEMMING E 454 8:58:25
1305 DE JONG CEES E 455 8:58:38
1306 VAN DER MADE ERIK E 456 8:58:40
1307 COSSYNS NICO C 225 8:58:40
1308 FOUILLOUD SEBASTIEN D 459 8:58:41
1309 SCHOKAERT LUC G 19 8:58:42
1310 SLOOTWEG ARJEN C 226 8:58:43
1311 MORELLO MASSIMO D 460 8:58:44
1312 GELEDAN ERIC E 457 8:58:45
1313 LARSEN MADS D 461 8:58:46
1314 PRINCIVALLE MASSIMO E 458 8:58:47
1315 MUNOZ PASTOR ANTONIO C 227 8:58:48
1316 GROOTEN LEON E 459 8:59:00
1317 IBANEZ RAIGAL MARIANO E 460 8:59:01
1318 GREENE ANDREW C 228 8:59:04
1319 JONKER ERIC D 462 8:59:06
1320 DONNELLY PAUL E 461 8:59:11
1321 PARREN JOOST D 463 8:59:14
1322 BONT HILLEBRAND C 229 8:59:17
1323 BROWNE JAMES D 464 8:59:41
1324 LINDEMAN JAN D 465 8:59:41
1325 BURGERS TEUN E 462 8:59:43
1326 STRAETMANS LIEVEN E 463 8:59:55
1327 VAN OSTAEYEN JOS F 130 9:00:03
1328 VAN DAMME ERIC E 464 9:00:05
1329 CAUDRON J.PAUL E 465 9:00:05
1330 OUGIER SYLVAIN D 466 9:00:08
1331 PERNICO MASSIMILIANO D 467 9:00:11
1332 BRAGADO BOUZO ESTEBAN D 468 9:00:18
1333 BOLWERK JOEP E 466 9:00:21
1334 STROOMER BOB C 230 9:00:33
1335 MUSIAL ANDRZEJ F 131 9:00:34
1336 VAN RIJTHOVEN SEBASTIEN E 467 9:00:40
1337 DUBOEUF JEAN-MARC F 132 9:00:47
1338 ARENS JEAN CLAUDE F 133 9:00:52
1339 SWERON LUDO E 468 9:01:01
1340 ANDREANI SERGE D 469 9:01:02
1341 BEKAERT GEERT E 469 9:01:10
1342 RAVINETTO LAURENT D 470 9:01:11
1343 MAN BART D 471 9:01:15
1344 MALENGO RENZO E 470 9:01:16
1345 GRANDCLAUDE GERARD F 134 9:01:18
1346 NAVEZ PATRICK F 135 9:01:18
1347 DE PEUTER ERIC E 471 9:01:20
1348 SUIKER STEPHAN D 472 9:01:21
1349 DIJKSTRA WERNER C 231 9:01:24
1350 IMTHORN LEO G 20 9:01:26
1351 ARIZAGA VALER TOMAS E 472 9:01:28
1352 VERSTOCKEN IGNACE F 136 9:01:31
1353 BAK TORSTEN E 473 9:01:32
1354 VERHEYDEN WALTER E 474 9:01:32
1355 AERTS EDDY E 475 9:01:33
1356 RUGHOLM LARS D 473 9:01:35
1357 HUTIER SYLVAIN D 474 9:01:36
1358 WINDT VOK E 476 9:01:36
1359 STEVENS ROALD C 232 9:01:36
1360 HUFKENS PATRICK E 477 9:01:38
1361 WADDINGTON PAUL E 478 9:01:39
1362 VAN GEERTRUYDEN KRIS C 233 9:01:40
1363 MORCH STEEN E 479 9:02:02
1364 PEREZ LOPEZ CARLOS JAVIER E 480 9:02:06
1365 LEONARD PATRICK E 481 9:02:16
1366 VAN DEN BOSCH TOM D 475 9:02:25
1367 LAUTENBACH HIDZER E 482 9:02:27
1368 IRAZUSTA GOENA JAVIER F 137 9:02:27
1369 PIOVANO PHILIPPE F 138 9:02:35
1370 REBOULLET GUILLAUME D 476 9:02:37
1371 SCHOORS GEERT E 483 9:02:50
1372 MOVERLEY ROGER D 477 9:02:52
1373 VANCUTSEM PHILIPPE D 478 9:02:57
1374 JANEX PHILIPPE E 484 9:03:02
1375 SINT ROEL C 234 9:03:03
1376 PUCHE SEBASTIEN D 479 9:03:08
1377 PUGNET THIERRY E 485 9:03:10
1378 VERMEERBERGEN POL E 486 9:03:10
1379 VAN OSS PAUL D 480 9:03:12
1380 CANAS RAFAEL C 235 9:03:15
1381 SECANELLAS ESPINOSA ALFONSO D 481 9:03:19
1382 PROCUREUR PHILLIPE E 487 9:03:25
1383 WOUDENBERG ALBERT E 488 9:03:31
1384 DELUY SERGE F 139 9:03:34
1385 HERVE GERARD F 140 9:03:42
1386 TULLEMANS R G 21 9:03:45
1387 DE SCHEPPER TOM D 482 9:03:46
1388 DIDERIKSEN KENNETH R. E 489 9:03:48
1389 DEBOOM BART D 483 9:03:48
1390 HILL ROBERT E 490 9:03:49
1391 SWAN WILLIAM J D 484 9:03:58
1392 GIESEN JOSHUA D 485 9:04:04
1393 DUKINO ERIK E 491 9:04:12
1394 FINOTTO PIERPAOLO E 492 9:04:13
1395 RUPUS BERT C 236 9:04:16
1396 AILHAUD JEAN E 493 9:04:21
1397 LE GALL PIERRE E 494 9:04:22
1398 VANDEVOORDE RONY E 495 9:04:24
1399 GUICH CORNELLA ANGEL C 237 9:04:27
1400 VAN DEN HAZEL SVEN E 496 9:04:28
1401 GUICHARDON GEORGES F 141 9:04:30
1402 MAAS PAUL E 497 9:04:33
1403 MORTLOCK RAY F 142 9:04:38
1404 VAN DER KRUK AAD D 486 9:04:42
1405 MAES DANNY E 498 9:04:47
1406 CLAEYSIER DANNY E 499 9:04:56
1407 HOSY PATRICK E 500 9:04:59
1408 EMMER BART D 487 9:05:00
1409 TUMMERS ROGER D 488 9:05:04
1410 DUIJN HENRY E 501 9:05:05
1411 OTTOMANI PIERRE E 502 9:05:06
1412 DOBBELAERE RONNY E 503 9:05:07
1413 BANFIELD MARTIN E 504 9:05:08
1414 BOUWMAN ADRIE F 143 9:05:10
1415 MIDDENDORP JOCHEM JAN C 238 9:05:10
1416 TRACET MARC E 505 9:05:11
1417 DE RUYCK KOEN E 506 9:05:11
1418 BOTTERBLOM GIJS C 239 9:05:13
1419 SCHAERLAECKENS CHRISTIANUS E 507 9:05:13
1420 GARDE ORDUNA PEDRO E 508 9:05:19
1421 DERON YVES E 509 9:05:25
1422 TERMEER REMI D 489 9:05:27
1423 VERSTEGEN BEN F 144 9:05:32
1424 BIESMANS NOEL F 145 9:05:33
1425 STAS JOHAN D 490 9:05:33
1426 TODOROV TODOR D 491 9:05:40
1427 DUVILLARD JEAN LUC E 510 9:05:40
1428 DOSSCHE KARL E 511 9:05:44
1429 VAN VOORN SANDER C 240 9:05:48
1430 CHAMPENOIS JOSE E 512 9:05:48
1431 ZIJLSTRA FEIJE F 146 9:05:48
1432 LUBACH MARTIN C 241 9:05:48
1433 CHAPMAN RICH D 492 9:05:59
1434 LAXALDE SERGE F 147 9:06:06
1435 CROUCH ROGER F 148 9:06:09
1436 BORNIER MARC F 149 9:06:09
1437 URKIRI ELU JOSEBA ANDONI C 242 9:06:10
1438 PARIS J.MICHEL F 150 9:06:17
1439 RAYNER DOMINIC D 493 9:06:22
1440 MARTINEZ OSCAR RODRIGUEZ C 243 9:06:23
1441 KILMARTIN JANE AB 11 9:06:25
1442 MENAUD ANDRE G 22 9:06:26
1443 BASSETTO ROBERT E 513 9:06:31
1444 DOLE RODRIGUE C 244 9:06:33
1445 SCHMETS GEOFFREY C 245 9:06:37
1446 SONCK ALEC F 151 9:06:43
1447 FORESTIER HERVE E 514 9:06:51
1448 BIJSTERBOSCH GERARD E 515 9:06:53
1449 COLLAER DIRK D 494 9:07:02
1450 HABY ERIC F 152 9:07:05
1451 HERNANDEZ ENRIC F 153 9:07:08
1452 GOEDSTOUWERS ROGER F 154 9:07:08
1453 ROTMANS JORIS D 495 9:07:09
1454 CHARRE PASCAL D 496 9:07:11
1455 CERISIER PETER D 497 9:07:12
1456 TONNEAU PATRICK F 155 9:07:15
1457 CAILLENS CHRISTOPHE D 498 9:07:24
1458 ZUBANI GIAN CARLO E 516 9:07:26
1459 ESSENDROP FINN E 517 9:07:31
1460 SAEZ DE LA ROSA ANTONIO E 518 9:07:33
1461 HOFMAN STIJN C 246 9:07:36
1462 GUET PATRICE E 519 9:07:39
1463 PIERLUIGI MARZETTI D 499 9:07:43
1464 PAILLARD PHILIPPE D 500 9:07:44
1465 JAKOBSEN KENT E 520 9:07:46
1466 KALDENHOVEN THEO F 156 9:07:51
1467 NIJS JOHAN E 521 9:07:52
1468 BISQUAY MICHAEL D 501 9:07:54
1469 LEFEVRE KOEN E 522 9:07:59
1470 ASENJO MOLINUEVO JESUS ANGEL E 523 9:08:00
1471 SAUVAGE DAVID D 502 9:08:05
1472 BRIERS MATTHEW D 503 9:08:08
1473 HUBREGTSE HUUB D 504 9:08:09
1474 DESMYTER HANS C 247 9:08:11
1475 DE KONING STEFAN D 505 9:08:20
1476 DE MEIF TIM D 506 9:08:24
1477 LENIE DIRK D 507 9:08:40
1478 GRAUWET PETER D 508 9:08:42
1479 SERAFINI ROBERTO D 509 9:08:47
1480 BASSET EMMANUEL E 524 9:08:48
1481 SVENDSEN KURT E 525 9:08:52
1482 ALBERTSEN LARS E 526 9:08:53
1483 VANDEVOORDE KRIS E 527 9:09:12
1484 VAN ITTERSUM BERT E 528 9:09:18
1485 HEIRBAUT ROB E 529 9:09:18
1486 EMORINE PASCAL E 530 9:09:21
1487 NICODEME JOEL E 531 9:09:23
1488 VAN DOORSSELAERE PAUL E 532 9:09:23
1489 SONSECA MARTIN JOSE D 510 9:09:29
1490 VAN DEN AKKERVEKEN EDDY E 533 9:09:34
1491 ALVAREZ PENA PEDRO ANTONIO E 534 9:09:38
1492 GREMEAUX DENIS D 511 9:09:43
1493 THOMEE BART C 248 9:09:48
1494 MURPHY JAMES D 512 9:09:50
1495 KEYMOLEN FRANS F 157 9:09:56
1496 THEGEN HENRIK E 535 9:10:03
1497 DANIEL LAURENT ARMAND D 513 9:10:07
1498 VERDONCK PATRICK E 536 9:10:07
1499 GIGNAC PHILIPPE D 514 9:10:21
1500 ARRIZABALAGA JON ANDONI D 515 9:10:25
1501 OVERTOOM BENEDIKT E 537 9:10:27
1502 TIJSEN RIENI F 158 9:10:29
1503 VAN EECKHOUTTE JOHAN E 538 9:10:29
1504 FIELDER JESPER E 539 9:10:50
1505 GONCALVES EURICO D 516 9:10:50
1506 ANDERSEN SEBASTIAN B. C 249 9:10:52
1507 DESENCLOS DANIEL F 159 9:11:04
1508 RICHTER VEIT D 517 9:11:10
1509 BOOCOCK DEREK F 160 9:11:11
1510 ZIEHRER MIKAEL D 518 9:11:16
1511 URIEN JON KOLDO E 540 9:11:25
1512 ROBIN GILLES F 161 9:11:32
1513 HOWARD MIKE C 250 9:11:33
1514 VOLPI MAURO E 541 9:11:35
1515 VAN TONGEREN THIJS C 251 9:11:38
1516 WELSBY PAUL E 542 9:11:41
1517 VERKUIJLEN BERNARD F 162 9:11:50
1518 RIVERO LAURENT E 543 9:11:54
1519 FOSSE ANDRE F 163 9:11:55
1520 GREVEN MAARTEN C 252 9:11:57
1521 LAP HANS F 164 9:12:01
1522 DERUSCHI FREDERIC E 544 9:12:02
1523 METAYE BRUNO E 545 9:12:06
1524 HARRIS TIM C 253 9:12:11
1525 CARRASCO SANCHEZ PEDRO JOSE F 165 9:12:12
1526 DEBERTOLIS SERGIO D 519 9:12:16
1527 BAUDOUIN MICHEL G 23 9:12:19
1528 LUND TROELS E 546 9:12:25
1529 COLIN GERALD D 520 9:12:27
1530 HULSBOSCH JAAK E 547 9:12:29
1531 HAYES PATRICK E 548 9:12:38
1532 LOPEZ BERROCAL BIENVENIDO F 166 9:12:46
1533 PFEIFFER MORITZ C 254 9:12:47
1534 ZWETSLOOT NIEK C 255 9:12:50
1535 GERRIT DAMEN E 549 9:12:56
1536 VAN BEEK EDWIN D 521 9:12:58
1537 LANGE TOM E 550 9:12:58
1538 GARCIA GARCIA ANDRES D 522 9:13:00
1539 VERHEES PAUL E 551 9:13:00
1540 TELFORD BRENT E 552 9:13:02
1541 PEREBOOMS LUC D 523 9:13:05
1542 KOOS SEESING F 167 9:13:07
1543 DIBOINE PATRICE E 553 9:13:29
1544 BOEYKENS PIET D 524 9:13:35
1545 KERRIDGE MIKE F 168 9:13:39
1546 ANDUEZA EDORTA E 554 9:13:42
1547 TELLEZ DAVID D 525 9:13:42
1548 DE KEYSER DIRK E 555 9:13:45
1549 LOPEZ COCERA JUAN JOSE D 526 9:13:45
1550 LIVINGSTONE DAVID D 527 9:13:52
1551 STEINER REMY F 169 9:13:52
1552 BRAECKMANS LUC E 556 9:13:53
1553 ALLEN PETER E 557 9:14:04
1554 YARZA AGUIRREGOMEZKORTA ANDER E 558 9:14:08
1555 VERHAAGH WIEL F 170 9:14:19
1556 SHARP SIMON E 559 9:14:25
1557 VAN PROOSDIJ VINCENT D 528 9:14:27
1558 BROCHIER BERTRAND D 529 9:14:46
1559 BOL PATRICK C 256 9:14:50
1560 WIGGERS TOM E 560 9:14:50
1561 GROOTEN HUUB E 561 9:14:58
1562 MEINDERTSMA XANDER D 530 9:15:00
1563 KRUSE ALLAN E 562 9:15:00
1564 VOLTERRANI PIETRO J 4 9:15:02
1565 STOKMAN WILLEM D 531 9:15:03
1566 FERNANDEZ SANCHEZ RAUL FERNANDO D 532 9:15:10
1567 CLARASO ELIZARI MARCELLI E 563 9:15:15
1568 VIAUD FREDERIC D 533 9:15:28
1569 JESPERS MARC E 564 9:15:44
1570 PAQUET MICHEL E 565 9:15:45
1571 DEBARNOT LUCIEN F 171 9:15:49
1572 GILBERT WILLIAM E 566 9:15:51
1573 DICKINSON SELBY E 567 9:15:58
1574 FAVA STEFANO C 257 9:16:01
1575 BERLINGO DANIELE F 172 9:16:07
1576 PIGONI SERGIO F 173 9:16:24
1577 VAN DEN AKKER HAN F 174 9:16:29
1578 VAN DER AVOORT HARRY F 175 9:16:32
1579 LAI CLAUDIA AB 12 9:16:35
1580 VILLANCE JULIEN F 176 9:16:35
1581 KASTELEIN SONNY C 258 9:16:35
1582 VAN DER MEIJS JOS E 568 9:16:40
1583 COLLEDGE PETER WILLIAM D 534 9:16:41
1584 KOENS PETER E 569 9:16:41
1585 TORO MASSIMO E 570 9:16:46
1586 MARTIN REQUENI JUAN RAMON D 535 9:16:48
1587 GUIGNARD CLAUDE E 571 9:16:48
1588 BEUMER HENK E 572 9:16:49
1589 LOPEZPEREZ FRANCISCO El 3 9:16:50
1590 FRADIN THIERRY E 573 9:16:52
1591 LLACUNA SORRIBAS SERGI E 574 9:16:55
1592 JESUS JAVIER INIGUEZ E 575 9:17:01
1593 ANNAND ANDREW E 576 9:17:02
1594 WALRAVENS TOM C 259 9:17:02
1595 HUISKAMP ADRIE E 577 9:17:03
1596 ADAMS ROY C 260 9:17:08
1597 HESEN PAUL D 536 9:17:14
1598 DE HULSTERS STEVEN D 537 9:17:16
1599 MOENS PATRICK E 578 9:17:19
1600 CHABOT CHRISTIAN F 177 9:17:23
1601 TOWSE RICHARD C 261 9:17:29
1602 ADAMS HERBERT E 579 9:17:31
1603 GREEN STEPHEN D 538 9:17:33
1604 SCHEPERS JEFFREY D 539 9:17:37
1605 HERRERO JURADO FRANCISCO F 178 9:17:38
1606 SCHUURMAN FRANK E 580 9:17:45
1607 NGUYEN GUY F 179 9:17:53
1608 CARRASCO GOMEZ JOSE LUIS D 540 9:17:59
1609 VELDHORST BEREND C 262 9:17:59
1610 CATTOIR MARC F 180 9:18:01
1611 PEDERSEN RUURD D 541 9:18:13
1612 DEARDEN MATTHEW C 263 9:18:19
1613 ALFONS SANCHEZ LUCIO D 542 9:18:19
1614 VAN EYKEN JAN F 181 9:18:20
1615 DE KEIJZER JERSEN C 264 9:18:31
1616 RASPOET FRANCIS F 182 9:18:38
1617 LETOUBLON OLIVIER E 581 9:18:41
1618 MARC PUJOLS TARRES D 543 9:18:42
1619 GOLBANO/GARCIA CARLOS/LOLA H 1 9:18:42
1620 FRANCK YVAN E 582 9:18:48
1621 FEENSTRA DIRK D 544 9:18:55
1622 VANUYTSEL HERMAN E 583 9:18:56
1623 ROLLINI CHRISTIAN D 545 9:18:59
1624 HENDRIKS RONALD D 546 9:19:10
1625 OLDHOFF LUCAS D 547 9:19:10
1626 JUSTRABO YVES F 183 9:19:17
1627 VAN ZON KEES E 584 9:19:22
1628 VAN DER MEER RUTGER C 265 9:19:23
1629 COSTES YANNICK E 585 9:19:33
1630 VAN STRIEN PATRICK D 548 9:19:34
1631 DECHENAUX BERNARD F 184 9:19:40
1632 GROENEVELD AB E 586 9:19:40
1633 CASARES XABIER D 549 9:19:42
1634 PRINS BERNI C 266 9:19:46
1635 MACIA VINCENT D 550 9:19:58
1636 ALIX PASCAL D 551 9:19:59
1637 TROS ROB E 587 9:20:02
1638 LAFAURY DIDIER E 588 9:20:02
1639 BUYSSE BART D 552 9:20:05
1640 JOHANSEN KIM F 185 9:20:10
1641 VANDERROOST FREDERIK C 267 9:20:18
1642 TRINEL REGIS F 186 9:20:21
1643 KLEIN BAS D 553 9:20:27
1644 KENENS BERT D 554 9:20:27
1645 CERRI STEFANO E 589 9:20:31
1646 STONEHOUSE JACK C 268 9:20:42
1647 PALM RENE D 555 9:20:44
1648 VAN PUYENBROECK DIRK E 590 9:21:01
1649 RASMUSSEN HANS ERIK F 187 9:21:02
1650 RIBEYRON PIERRE C 269 9:21:04
1651 VIZIOZ FORTIN YANNICK C 270 9:21:05
1652 MOREAU EMMANUEL E 591 9:21:13
1653 CHENEVAL-PALLUD CHRISTOPHE E 592 9:21:26
1654 FLAMENT DOMINIQUE D 556 9:21:32
1655 DEBOUVER STEFAAN E 593 9:21:33
1656 MAZEROLLE LOUIS C 271 9:21:37
1657 VAN ADRICHEM JOS E 594 9:21:37
1658 BOHHER ERIH C 272 9:21:40
1659 PETERS VAN TON MARCEL D 557 9:21:44
1660 VAN DER DEIJL ARJAN D 558 9:21:51
1661 FOYOT JEAN LOUIS F 188 9:21:55
1662 GARZUEL DOMINIQUE F 189 9:22:03
1663 WHITFIELD DAVID E 595 9:22:08
1664 ROBERTS SIMON D 559 9:22:10
1665 STENVERS NUHI D 560 9:22:14
1666 VAN HAMERSVELD PIM D 561 9:22:15
1667 CRENEL DIDIER E 596 9:22:24
1668 HUUSOM KLAUS E 597 9:22:32
1669 V D WIEIL PETER F 190 9:22:33
1670 SKAALUM OLAV F 191 9:22:33
1671 VAN OS JESSY A 7 9:22:36
1672 STERLING MARK E 598 9:22:38
1673 DHAENEKINT STIJN C 273 9:22:39
1674 HERMSEN JUR E 599 9:22:47
1675 WARNAR FRE F 192 9:22:52
1676 VERNAET RONY E 600 9:23:08
1677 JARRY MICHEL D 562 9:23:13
1678 SUEK PAUL E 601 9:23:14
1679 HENDRIKSEN HENK E 602 9:23:20
1680 VAN BREMPT TOM D 563 9:23:23
1681 COCHOIS FRANCK E 603 9:23:26
1682 SAURET JACQUES G 24 9:23:28
1683 HIRAM FRANCOIS E 604 9:23:29
1684 ALGER CHARLES D 564 9:23:31
1685 BUCK KESBY MICHAEL D 565 9:23:34
1686 LUTTIKHUIZEN CEES D 566 9:23:36
1687 RINCKENBACH CLAUDE F 193 9:23:37
1688 RIBATE RIANO JOSE RAMON E 605 9:23:47
1689 GUZZETTI MARCO F 194 9:23:49
1690 VIGNATI GIAN MARCO E 606 9:23:50
1691 HIDDING AART C 274 9:23:52
1692 CONRAD BLASI CAYUELA D 567 9:23:54
1693 IBSEN BJARNE E 607 9:23:57
1694 DE VLEESSCHAUWER EDDY F 195 9:23:57
1695 TROTMAN PETER F 196 9:23:58
1696 DEGUIN DANIEL E 608 9:24:00
1697 CURRIE ADAM C 275 9:24:02
1698 VAN DEN ENDEN ANDRE F 197 9:24:02
1699 CEULEMANS LIEVEN C 276 9:24:03
1700 MEULEMEESTER MARNIX E 609 9:24:06
1701 NAUWELAERTS DANNY E 610 9:24:10
1702 OXSENER PATRICK D 568 9:24:18
1703 PETIT SEBASTIEN C 277 9:24:21
1704 ARRONDO IMAZ AITOR C 278 9:24:25
1705 GASPAR PHILIPPE E 611 9:24:33
1706 BECKETT JOHN E 612 9:24:36
1707 WINTERS JOS E 613 9:24:41
1708 VAN DER KNAAP PETER F 198 9:24:41
1709 VAN EYKEN KELLY A 8 9:24:43
1710 HUGUENIN JEAN JACQUES E 614 9:24:49
1711 NORREMARK JENS D 569 9:24:51
1712 BOUDESTIJN ROB C 279 9:24:52
1713 QUILLERE ALAIN G 25 9:24:52
1714 DIERICKX KOEN D 570 9:25:00
1715 VAN LATHEM GEERT D 571 9:25:01
1716 HEYNINCK PETER E 615 9:25:03
1717 DEES GUIDO D 572 9:25:14
1718 CLERC DANIEL F 199 9:25:16
1719 LENAERTS JEAN PIERRE E 616 9:25:19
1720 IZZARD KEVIN E 617 9:25:28
1721 SCHOONHEIJM WIM E 618 9:25:30
1722 URBAIN PASCAL D 573 9:25:32
1723 RIGABERT MONTIEL JUAN E 619 9:25:35
1724 BOECKSTAENS RUDI F 200 9:25:35
1725 DE SMEDT TOMMIE D 574 9:25:37
1726 SCHILDER EDWIN D 575 9:25:49
1727 VAN CAPPELLEN PETER E 620 9:25:51
1728 FOWKES STEPHEN D 576 9:25:58
1729 BLERY FREDERIC D 577 9:26:09
1730 VAN HEVEL WIM D 578 9:26:13
1731 PETER DANIEL F 201 9:26:16
1732 FREDDO LIONEL D 579 9:26:16
1733 GIMEL MARCEL G 26 9:26:16
1734 DEJONGHE KRIS E 621 9:26:19
1735 MORGAN GEOFFREY D 580 9:26:33
1736 HYDE JAIME D 581 9:26:46
1737 DIERMEN ARIE F 202 9:26:58
1738 VOLCLAIR JEAN CHRISTOPHE D 582 9:27:03
1739 HOLMES CHRIS D 583 9:27:10
1740 LOPEZ SANTOS JESUS D 584 9:27:16
1741 VAN ERKEL ROGIER D 585 9:27:20
1742 MOMBEEK GUY E 622 9:27:22
1743 SOCIE MARTIAL D 586 9:27:31
1744 VAN RAVENSBERG EVERT F 203 9:27:31
1745 DECROIX IVAN E 623 9:27:32
1746 ELORTZA XABIER C 280 9:27:37
1747 KAMPHUIS JOHN D 587 9:27:42
1748 VALLENZASCA ALAIN F 204 9:27:43
1749 CABEZUELO CARMELO D 588 9:27:53
1750 HERMSEN ROB E 624 9:27:54
1751 ROUSSEL SÉBASTIEN D 589 9:28:02
1752 DEZETAVE JANICK F 205 9:28:16
1753 VAN ABSWOUDE PETER E 625 9:28:25
1754 ERNST MARKUS C 281 9:28:28
1755 DECIMO ERIC E 626 9:28:32
1756 MANDIN FRANCK E 627 9:28:37
1757 LAMON OLIVIER D 590 9:28:37
1758 MACDONALD TREVOR F 206 9:28:39
1759 BOSCHER EMMANUEL D 591 9:28:41
1760 JOOSEN JAN E 628 9:28:44
1761 KNEPPERS HARRY F 207 9:28:45
1762 PALACIN DANIEL E 629 9:28:49
1763 STEIJN STEPHAN D 592 9:28:49
1764 DE WAELE FREDDY E 630 9:28:51
1765 DE VLIEGER STEVEN D 593 9:28:51
1766 MICHIELS DIRK E 631 9:28:56
1767 MION TONI E 632 9:29:03
1768 WELLENS ANDY C 282 9:29:10
1769 IKER CHAPARRO C 283 9:29:14
1770 BREUKER RUUD C 284 9:29:15
1771 CECCATO J.LUC F 208 9:29:15
1772 BEURS COR F 209 9:29:23
1773 WILLEMSEN WILLEM E 633 9:29:24
1774 QUINCE CHRISTOPHER E 634 9:29:35
1775 GUIGLI MARCO E 635 9:29:35
1776 VAN EIJK MARCEL D 594 9:29:39
1777 DE VOS BEAN C 285 9:29:40
1778 GUYOT RENAUD E 636 9:29:43
1779 BIJL PETER C 286 9:29:52
1780 CHEW YU MING D 595 9:29:53
1781 BUSTINDUY PERTICA C 287 9:29:56
1782 HANSEN JAN E 637 9:29:57
1783 SINKINSON MARTIN E 638 9:29:59
1784 B HANSEN ERLING F 210 9:30:00
1785 GOBILLOT FRANCK D 596 9:30:04
1786 REUKEN JORG D 597 9:30:13
1787 MONTOYA LOPEZ JOSE E 639 9:30:20
1788 MINOR PETER E 640 9:30:24
1789 SICARDI BOGA ROBERT E 641 9:30:36
1790 MARTIN PATRICK F 211 9:30:40
1791 BERNARD ROBERT D 598 9:30:42
1792 VANN DER SLYCKEN PETER D 599 9:30:54
1793 MAHON PETER F 212 9:30:55
1794 ISHIHARA KENGO D 600 9:30:55
1795 VAN DER VLEUTEN JOHN E 642 9:31:12
1796 VAN DEN PLAS JOERI D 601 9:31:21
1797 MAHIEU OLIVIER C 288 9:31:24
1798 KORSTANJE ERIC E 643 9:31:25
1799 DENDOOVEN WILLEM C 289 9:31:32
1800 BROEDERS RICHARD D 602 9:31:37
1801 VAN SPANJE RUUD D 603 9:31:42
1802 CHRZANOWSKI EDWARD F 213 9:31:51
1803 CAMBRONERO GINES ADRIADNA AB 13 9:31:51
1804 STEEGMANS NORBERT E 644 9:31:56
1805 MOONEN HENK F 214 9:31:58
1806 SHERIDAN CHARLIE D 604 9:32:01
1807 BYSKOV THOMSEN STEEN F 215 9:32:04
1808 GOUROUNAS JEAN LUC E 645 9:32:11
1809 HEMMINGSEN RENE F 216 9:32:13
1810 FIZ CRIADO FERNANDO F 217 9:32:18
1811 HANSEN HENRIK E 646 9:32:19
1812 MAES BERT C 290 9:32:20
1813 RUBIO ANDY E 647 9:32:24
1814 HELTA PIOTR D 605 9:32:24
1815 DE SMET PATRICK D 606 9:32:24
1816 LAMBRECHT GINO E 648 9:32:30
1817 DESMYTER PIETER C 291 9:32:39
1818 MERTENS EDDY E 649 9:32:45
1819 NAVARRO SANCHEZ MIQUEL D 607 9:32:46
1820 SAPERAS BLANCO JOSEP D 608 9:32:47
1821 ROMEFORT PHILIPPE E 650 9:32:48
1822 THOMSON EVENCE F 218 9:32:48
1823 IRAZOLA LORENZO E 651 9:32:48
1824 PONSON CEDRIC C 292 9:32:49
1825 MATTHYSSEN EDWIN D 609 9:32:57
1826 LECHAT LOUIS E 652 9:32:59
1827 CUYPEZS KOEN C 293 9:33:01
1828 AMO MARTINEZ DOMINGO JESUS F 219 9:33:02
1829 KARTHAUS LENNART C 294 9:33:03
1830 NEIRYNCK WOUTER D 610 9:33:10
1831 CHOVIN CHRISTOPHE C 295 9:33:18
1832 BRUTTIN CHRISTOPHE D 611 9:33:19
1833 ESNAOLA LUIS D 612 9:33:21
1834 LOZANO FERNANDEZ JOSE E 653 9:33:32
1835 DE JONG MAARTEN D 613 9:33:33
1836 VILLEVIEILLE EMMANUEL E 654 9:33:36
1837 FERNADEZ CRESPO FELIPE E 655 9:33:37
1838 LERESCHE PHILIPPE E 656 9:33:43
1839 MIRANDA JOSEPH E 657 9:33:48
1840 GIELSTRA JOHAN D 614 9:34:08
1841 CRADDOCK ANTONY E 658 9:34:10
1842 ZUCCHIATI MANUELE E 659 9:34:13
1843 EVEN JEAN CLAUDE E 660 9:34:13
1844 ABRIAL XAVIER D 615 9:34:15
1845 VERDUIJN VINCENT D 616 9:34:18
1846 JENSEN KARSTEN E 661 9:34:19
1847 LOUBLIE ALEXANDRE D 617 9:34:21
1848 HANNES JOZEF G 27 9:34:23
1849 NIJLAND MAARTEN C 296 9:34:23
1850 VAN NIJNATTEN PA C 297 9:34:23
1851 CAVALLI ANTONELLO E 662 9:34:25
1852 LADEFOGED ANDERS D 618 9:34:26
1853 HULISZ PAUL D 619 9:34:31
1854 BURTON MAURICE F 220 9:34:32
1855 DE VROOME ERIC F 221 9:34:38
1856 VAN OS STEFAN E 663 9:34:40
1857 MIEDEMA ANNE F 222 9:34:42
1858 LAIGNEL YVES F 223 9:34:47
1859 BRON ROGIER D 620 9:34:50
1860 ERTLEN PHILIPPE E 664 9:34:56
1861 VINK CEES C 298 9:35:00
1862 ZONDERVAN ROBERT E 665 9:35:01
1863 VINK JERRY D 621 9:35:03
1864 KROON HENDRIK F 224 9:35:03
1865 WYMENGA EDDY E 666 9:35:03
1866 DE CONINCK SVEN C 299 9:35:03
1867 MILAN JEAN E 667 9:35:05
1868 SAVARY FABRICE E 668 9:35:06
1869 VAN OSCH HERMAN F 225 9:35:07
1870 VOCHTEN KRISTEL A 9 9:35:24
1871 HERMET GERARD F 226 9:35:30
1872 COUREAU CHRISTIAN E 669 9:35:32
1873 VAN DEN EYNDE MARC E 670 9:35:34
1874 RONNPAGE RAYMOND F 227 9:35:38
1875 JAGLA PAUL E 671 9:35:39
1876 AZPITARTE GABILOND IGNACIO F 228 9:35:41
1877 CONY MICHEL E 672 9:35:43
1878 HEIJL MARKO D 622 9:35:44
1879 VAN DE WEYER BEN E 673 9:35:46
1880 SCHAMP DIRK E 674 9:35:47
1881 BYCZKOWSKI WACLAW F 229 9:35:51
1882 HUSBAND GAVIN E 675 9:35:56
1883 NIELSEN JORGEN RATH J 5 9:36:07
1884 SEVENHANS GEERT C 300 9:36:08
1885 THOMASEN KIM C 301 9:36:08
1886 ANTONIAZZI JEAN-LUC F 230 9:36:11
1887 MULDER BERT F 231 9:36:16
1888 GARNODIER VERONIQUE AB 14 9:36:17
1889 CORREIA LOPES JOSE CARLOS E 676 9:36:17
1890 GRUART GUEVARA XAVIER D 623 9:36:19
1891 RONTELTAP PIETER C 302 9:36:21
1892 OST ROANLD F 232 9:36:23
1893 PIERIK BAS D 624 9:36:24
1894 INAKI YURRITA D 625 9:36:28
1895 BOLUSSET FREDERIC D 626 9:36:31
1896 JOCHEMS JOHNNY E 677 9:36:37
1897 MOEJBAEK OLE F 233 9:36:39
1898 ROBIN HUGO C 303 9:36:40
1899 PHILIP PIERRE E 678 9:36:42
1900 SEPPENWOOLDE EDWIN D 627 9:36:44
1901 FRANCOIS HERVE D 628 9:36:45
1902 DE SCHRIJVER FRANS F 234 9:36:53
1903 VEENS JEROEN C 304 9:36:58
1904 DOMMERHOLT HEITE E 679 9:37:03
1905 FOUBERT BERT F 235 9:37:06
1906 MONTANA CASANOVAS JAIME E 680 9:37:17
1907 HOUBEN TOM C 305 9:37:22
1908 VANDEROOST TOM C 306 9:37:35
1909 SNELDERS BAS E 681 9:37:38
1910 COOPMAN PATRICK E 682 9:37:40
1911 WAKES JOHN F 236 9:37:41
1912 MUNOA MENDIZABAL JOSE MARI D 629 9:37:46
1913 CAILLAT JEROME D 630 9:37:46
1914 ASENCIO ESTEBAN JESUS D 631 9:37:49
1915 HAGENAAR FREEK G 28 9:37:52
1916 WALRAVENS STEFAAN C 307 9:37:52
1917 CUERVO GUTIERREZ LUIS ALVARO E 683 9:37:54
1918 HENRARD ALAIN D 632 9:37:55
1919 PERRY MALCOLM E 684 9:37:57
1920 VAN BEURDEN KLAAS D 633 9:37:57
1921 IANELLI MATTEO D 634 9:38:01
1922 DRESSELAERS EDDY G 29 9:38:08
1923 STIBLER YANN C 308 9:38:13
1924 DALL-JEPSEN JARL E 685 9:38:18
1925 BRUYNSEELS ERIK D 635 9:38:20
1926 TORINESE SAMUELE D 636 9:38:22
1927 VAN DER AA EDWIN D 637 9:38:22
1928 ARENDS HANS E 686 9:38:22
1929 ERIKSSON ULF F 237 9:38:27
1930 DE PLUKKER PETER E 687 9:38:28
1931 VERMEULEN BAS E 688 9:38:29
1932 MATTIOLI LEONARDO E 689 9:38:33
1933 BISTONI MARCO E 690 9:38:34
1934 BALTISSEN HARRY F 238 9:38:35
1935 WEVER PAUL E 691 9:38:36
1936 PERROD JEAN MICHEL E 692 9:38:43
1937 HALLGREN MICHAEL E 693 9:38:51
1938 EBER BERNARD F 239 9:38:54
1939 JONGEJAN ARIE F 240 9:38:54
1940 PELLEN ROLAND F 241 9:38:56
1941 BONHOMME PATRICE E 694 9:38:57
1942 UNDERHILL ANDREW E 695 9:38:58
1943 SANTIAGO ANNE AB 15 9:39:13
1944 ROBINSON DAVID E 696 9:39:15
1945 NOTALAERS BENNY F 242 9:39:16
1946 LE NORMAND JOEL F 243 9:39:21
1947 LUCASSEN RAYMOND D 638 9:39:25
1948 BOUTTAZ OLIVIER D 639 9:39:26
1949 VAN GULIK JAN E 697 9:39:30
1950 DESSEYN REINAART C 309 9:39:33
1951 VERSCHUERE PHILIP D 640 9:39:38
1952 GOLAY ERWIN E 698 9:39:42
1953 DEMESSEMAKERS ALAIN E 699 9:39:48
1954 JENSEN JAN ENGEL E 700 9:40:06
1955 KOOLWIJK PIM D 641 9:40:17
1956 SIMONSEN LARS D 642 9:40:25
1957 BOLUDA HERNANDEZ EMILIO E 701 9:40:26
1958 VINCKE IVAN D 643 9:40:37
1959 LOOTENS CHRISTIAN F 244 9:40:41
1960 SPECKEN BART E 702 9:40:43
1961 VIOLON JACQUES F 245 9:40:47
1962 KOENE JAN HENDRIK E 703 9:40:50
1963 VAN OVERMEIRE PETER C 310 9:40:52
1964 FUENTES TOVAR CARLOS E 704 9:40:52
1965 BEYNON TOM D 644 9:40:53
1966 PETERSEN BO HAVE E 705 9:41:00
1967 CORTIAL JEROME D 645 9:41:04
1968 GIRDLESTONE WAYNE E 706 9:41:12
1969 SIRDEVAN JOSEPH E 707 9:41:16
1970 ACHARD ALBINE AB 16 9:41:17
1971 REBOUL VINCENT E 708 9:41:18
1972 CORTIAL OLIVIER D 646 9:41:22
1973 AIME TIZIANO C 311 9:41:26
1974 VAN TOLEPO MARTIJN J 6 9:41:28
1975 MOLENBRUGGE THEO J 7 9:41:37
1976 NAEPELS FREDERIC D 647 9:41:40
1977 VANSON JACK F 246 9:41:49
1978 VINK ROB D 648 9:41:56
1979 VAN DE HAM PETER E 709 9:41:58
1980 SIER TOM D 649 9:42:03
1981 DE LUYCKER PASCAL D 650 9:42:07
1982 BIRNEY MARTIN F 247 9:42:09
1983 VERHEESEN MARTIN D 651 9:42:21
1984 VERHEESEN PETER D 652 9:42:24
1985 COLPAERT RUDY F 248 9:42:25
1986 JEREMY EDWARD C 312 9:42:25
1987 SAN ANDRES JAVIER E 710 9:42:26
1988 HEATH GRAHAM E 711 9:42:26
1989 THIELE MISCHA D 653 9:42:29
1990 FAUBEL GUY NOEL E 712 9:42:37
1991 VANDEN WYNEAERT DIMITRI J 8 9:42:39
1992 KOZICKI JASON D 654 9:42:47
1993 BEGONA JOSE LUIS E 713 9:42:49
1994 MURPHY ADRIAN D 655 9:42:50
1995 BOHN OLIVIER E 714 9:42:50
1996 LAUGEROTTE FRANCOIS F 249 9:42:54
1997 VAN HOYWEGHEN BRAM C 313 9:42:55
1998 NASTASI PHILIPPE D 656 9:42:58
1999 KUSTERS DRE E 715 9:42:59
2000 VAN PETEGEM REINIER C 314 9:43:00

上向き 









上向き  
 プライベートエリア   著作権については-Copyright: クリック ここで 読むには!